DW4553 Weather Reports


time (UTC)temp
C
wind
direction
speed
KPH
gust
KPH
rain 1hr
cm
rain 24hr
cm
rain mn
cm
humidity
%
barometer
mb
20260504205156 24 284 4.8 8.0 0.00 0.00 0.00 40 1014.8
20260504204655 25 180 8.0 12.9 0.00 0.00 0.00 39 1015.1
20260504204153 24 107 1.6 4.8 0.00 0.00 0.00 38 1014.7
20260504203651 25 192 1.6 9.7 0.00 0.00 0.00 39 1014.9
20260504203148 23 149 9.7 12.9 0.00 0.00 0.00 40 1015.0
20260504202643 24 94 3.2 11.3 0.00 0.00 0.00 42 1014.9
20260504202140 25 155 11.3 12.9 0.00 0.00 0.00 39 1015.1
20260504201637 24 114 1.6 4.8 0.00 0.00 0.00 39 1015.0
20260504201135 24 295 1.6 4.8 0.00 0.00 0.00 38 1015.1
20260504200632 25 108 3.2 11.3 0.00 0.00 0.00 37 1015.2
20260504200128 24 177 4.8 8.0 0.00 0.00 0.00 36 1015.2
20260504195624 25 108 3.2 8.0 0.00 0.00 0.00 37 1015.2
20260504195121 24 171 6.4 9.7 0.00 0.00 0.00 39 1015.3
20260504194618 24 175 4.8 8.0 0.00 0.00 0.00 38 1015.4
20260504194113 24 121 4.8 8.0 0.00 0.00 0.00 39 1015.7
20260504193610 24 83 1.6 4.8 0.00 0.00 0.00 37 1015.6
20260504193109 24 85 1.6 3.2 0.00 0.00 0.00 36 1015.6
20260504192606 24 290 1.6 4.8 0.00 0.00 0.00 36 1015.6
20260504192104 24 94 3.2 8.0 0.00 0.00 0.00 37 1015.8
20260504191602 24 21 1.6 8.0 0.00 0.00 0.00 34 1015.9
20260504191058 24 166 3.2 3.2 0.00 0.00 0.00 37 1016.2
20260504190554 24 101 1.6 9.7 0.00 0.00 0.00 38 1016.0
20260504190050 23 219 3.2 9.7 0.00 0.00 0.00 37 1016.0
20260504185548 23 67 6.4 9.7 0.00 0.00 0.00 40 1016.1
20260504185044 24 166 6.4 9.7 0.00 0.00 0.00 45 1016.2
20260504184539 23 108 3.2 4.8 0.00 0.00 0.00 43 1016.3
20260504184035 23 71 0.0 4.8 0.00 0.00 0.00 43 1016.2
20260504183532 24 131 3.2 4.8 0.00 0.00 0.00 42 1016.1
20260504183031 24 29 1.6 1.6 0.00 0.00 0.00 41 1016.3
20260504182527 23 207 4.8 8.0 0.00 0.00 0.00 41 1016.5
20260504182025 24 78 1.6 4.8 0.00 0.00 0.00 43 1016.6
20260504181521 24 35 1.6 4.8 0.00 0.00 0.00 41 1016.7
20260504181020 23 38 1.6 3.2 0.00 0.00 0.00 44 1016.6
20260504180518 23 29 1.6 3.2 0.00 0.00 0.00 39 1016.8
20260504180017 23 156 3.2 4.8 0.00 0.00 0.00 43 1017.0
20260504175513 23 245 0.0 3.2 0.00 0.00 0.00 43 1017.0
20260504175011 23 198 6.4 11.3 0.00 0.00 0.00 41 1017.0
20260504174508 23 180 3.2 8.0 0.00 0.00 0.00 43 1017.0
20260504174005 23 137 1.6 4.8 0.00 0.00 0.00 42 1017.0
20260504173502 23 348 1.6 3.2 0.00 0.00 0.00 45 1017.2
20260504172959 23 7 1.6 4.8 0.00 0.00 0.00 46 1017.2
20260504172455 23 349 6.4 9.7 0.00 0.00 0.00 45 1017.3
20260504171952 23 300 6.4 8.0 0.00 0.00 0.00 43 1017.3
20260504171449 23 47 1.6 8.0 0.00 0.00 0.00 44 1017.4
20260504170945 23 72 0.0 3.2 0.00 0.00 0.00 43 1017.6
20260504170442 23 14 3.2 4.8 0.00 0.00 0.00 45 1017.6
20260504160402 21 75 1.6 4.8 0.00 0.00 0.00 47 1018.3
20260504150826 20 191 6.4 9.7 0.00 0.00 0.00 53 1018.8
20260504150322 20 180 1.6 9.7 0.00 0.00 0.00 52 1018.5
20260504141252 17 266 4.8 8.0 0.00 0.00 0.00 58 1019.0
20260504140749 18 211 1.6 4.8 0.00 0.00 0.00 58 1019.1
20260504140244 17 217 4.8 4.8 0.00 0.00 0.00 58 1019.4
20260504130713 14 19 0.0 1.6 0.00 0.00 0.00 73 1019.2
20260504130209 13 9 0.0 1.6 0.00 0.00 0.00 75 1019.1
20260504120133 5 70 0.0 0.0 0.00 0.00 0.00 99 1018.7
20260504110600 4 68 0.0 0.0 0.00 0.00 0.00 99 1018.4
20260504100522 5 68 0.0 0.0 0.00 0.00 0.00 99 1018.1
20260504081916 5 69 0.0 1.6 0.00 0.00 0.00 99 1018.1
20260504081413 5 65 0.0 0.0 0.00 0.00 0.00 99 1018.1
20260504080908 5 63 0.0 1.6 0.00 0.00 0.00 99 1018.1
20260504080406 5 61 0.0 0.0 0.00 0.00 0.00 99 1018.1
20260504070333 5 75 0.0 1.6 0.00 0.00 0.00 99 1018.2
20260504050721 7 26 0.0 1.6 0.00 0.00 0.00 97 1019.2
20260504050218 7 26 0.0 1.6 0.00 0.00 0.00 98 1018.9
20260504045715 7 43 0.0 0.0 0.00 0.00 0.00 98 1019.0
20260504045215 6 81 0.0 0.0 0.00 0.00 0.00 98 1019.1
20260504044714 6 75 0.0 0.0 0.00 0.00 0.00 97 1019.2
20260504044211 6 75 0.0 0.0 0.00 0.00 0.00 97 1019.3
20260504043708 7 75 0.0 0.0 0.00 0.00 0.00 97 1019.1
20260504043204 7 75 0.0 0.0 0.00 0.00 0.00 97 1019.0
20260504042702 7 75 0.0 0.0 0.00 0.00 0.00 97 1019.2
20260504042158 7 75 0.0 0.0 0.00 0.00 0.00 96 1019.2
20260504041654 7 75 0.0 1.6 0.00 0.00 0.00 96 1019.3
20260504041150 7 141 3.2 3.2 0.00 0.00 0.00 95 1019.4
20260504040647 7 43 0.0 0.0 0.00 0.00 0.00 95 1019.3
20260504040144 8 42 0.0 0.0 0.00 0.00 0.00 94 1019.6
20260504035641 8 42 0.0 0.0 0.00 0.00 0.00 94 1019.6
20260504035138 8 43 0.0 1.6 0.00 0.00 0.00 94 1019.6
20260504034635 8 45 0.0 1.6 0.00 0.00 0.00 93 1019.7
20260504034132 8 46 0.0 1.6 0.00 0.00 0.00 93 1019.6
20260504033630 8 48 0.0 0.0 0.00 0.00 0.00 92 1019.5
20260504033127 8 48 0.0 1.6 0.00 0.00 0.00 93 1019.3
20260504032624 8 73 0.0 1.6 0.00 0.00 0.00 93 1019.5
20260504032121 8 74 1.6 1.6 0.00 0.00 0.00 92 1019.2
20260504031618 8 73 0.0 0.0 0.00 0.00 0.00 91 1019.4
20260504031114 8 73 0.0 0.0 0.00 0.00 0.00 89 1019.3
20260504030611 8 73 0.0 0.0 0.00 0.00 0.00 88 1019.2
20260504030108 8 73 0.0 0.0 0.00 0.00 0.00 88 1019.3
20260504025605 8 73 0.0 1.6 0.00 0.00 0.00 91 1019.5
20260504025101 8 74 0.0 1.6 0.00 0.00 0.00 91 1019.3
20260504024559 9 73 0.0 1.6 0.00 0.00 0.00 90 1019.4
20260504024055 9 73 1.6 1.6 0.00 0.00 0.00 89 1019.3
20260504023552 9 38 0.0 0.0 0.00 0.00 0.00 87 1019.3
20260504023048 9 38 0.0 0.0 0.00 0.00 0.00 88 1019.2
20260504022544 9 79 0.0 1.6 0.00 0.00 0.00 89 1019.2
20260504022040 9 80 0.0 0.0 0.00 0.00 0.00 89 1019.0
20260504021538 9 131 1.6 3.2 0.00 0.00 0.00 89 1018.7
20260504021035 10 105 1.6 1.6 0.00 0.00 0.00 87 1018.7
20260504020532 10 302 1.6 1.6 0.00 0.00 0.00 84 1019.0
20260504020028 10 309 0.0 0.0 0.00 0.00 0.00 82 1018.9
20260504015524 11 309 0.0 1.6 0.00 0.00 0.00 81 1019.0
20260504015020 11 309 0.0 1.6 0.00 0.00 0.00 79 1018.8
20260504014517 11 309 0.0 0.0 0.00 0.00 0.00 78 1018.6
20260504014014 11 309 0.0 0.0 0.00 0.00 0.00 80 1018.6
20260504013512 11 309 0.0 0.0 0.00 0.00 0.00 79 1018.6
20260504013009 11 308 1.6 1.6 0.00 0.00 0.00 74 1018.6
20260504012506 11 308 0.0 1.6 0.00 0.00 0.00 76 1018.5
20260504012004 11 308 0.0 0.0 0.00 0.00 0.00 76 1018.5
20260504011500 12 308 0.0 1.6 0.00 0.00 0.00 74 1018.3
20260504010955 12 309 0.0 0.0 0.00 0.00 0.00 71 1018.3
20260504010452 12 309 0.0 1.6 0.00 0.00 0.00 67 1018.3
20260504005948 13 309 0.0 1.6 0.00 0.00 0.00 67 1018.4
20260504005445 13 309 0.0 1.6 0.00 0.00 0.00 66 1018.4
20260504004943 13 308 1.6 1.6 0.00 0.00 0.00 62 1018.2
20260504004440 14 308 1.6 1.6 0.00 0.00 0.00 63 1018.1
20260504003937 15 308 1.6 1.6 0.00 0.00 0.00 61 1018.2
20260504003433 15 308 0.0 0.0 0.00 0.00 0.00 56 1018.0
20260504002930 16 307 0.0 0.0 0.00 0.00 0.00 51 1017.9
20260504002427 16 267 1.6 3.2 0.00 0.00 0.00 48 1017.9
20260504001924 16 323 0.0 1.6 0.00 0.00 0.00 49 1018.0
20260504001422 16 321 1.6 1.6 0.00 0.00 0.00 48 1018.0
20260504000918 17 301 1.6 3.2 0.00 0.00 0.00 48 1017.9
20260504000416 17 358 0.0 1.6 0.00 0.00 0.00 47 1018.1
20260503235913 17 294 1.6 3.2 0.00 0.00 0.00 46 1018.1
20260503235411 17 291 1.6 3.2 0.00 0.00 0.00 45 1017.9
20260503234908 18 335 1.6 3.2 0.00 0.00 0.00 43 1018.2
20260503234405 18 14 1.6 1.6 0.00 0.00 0.00 43 1017.9
20260503233903 18 293 1.6 3.2 0.00 0.00 0.00 42 1018.0
20260503233359 18 326 1.6 1.6 0.00 0.00 0.00 43 1018.0
20260503232855 18 356 1.6 4.8 0.00 0.00 0.00 45 1018.1
20260503232353 18 14 1.6 4.8 0.00 0.00 0.00 45 1018.0
20260503231851 18 23 1.6 8.0 0.00 0.00 0.00 42 1018.1
20260503231347 18 301 4.8 12.9 0.00 0.00 0.00 42 1017.9
20260503230844 18 30 3.2 8.0 0.00 0.00 0.00 45 1018.1
20260503230340 19 226 1.6 3.2 0.00 0.00 0.00 43 1018.3
20260503225839 18 303 3.2 9.7 0.00 0.00 0.00 40 1018.2
20260503225334 19 293 4.8 9.7 0.00 0.00 0.00 40 1018.0
20260503224830 19 6 4.8 8.0 0.00 0.00 0.00 40 1017.9
20260503224328 19 20 1.6 9.7 0.00 0.00 0.00 42 1018.1
20260503223826 20 307 3.2 3.2 0.00 0.00 0.00 41 1018.1
20260503223323 20 111 3.2 4.8 0.00 0.00 0.00 40 1018.1
20260503222818 20 334 1.6 3.2 0.00 0.00 0.00 40 1018.0
20260503222317 20 285 4.8 9.7 0.00 0.00 0.00 40 1018.2
20260503221815 20 269 4.8 8.0 0.00 0.00 0.00 40 1018.3
20260503221313 20 26 4.8 8.0 0.00 0.00 0.00 41 1018.3
20260503220809 20 299 4.8 4.8 0.00 0.00 0.00 37 1018.1
20260503220306 20 23 1.6 8.0 0.00 0.00 0.00 40 1018.4
20260503215803 20 12 1.6 9.7 0.00 0.00 0.00 40 1018.4
20260503215259 20 20 1.6 3.2 0.00 0.00 0.00 38 1018.2
20260503214758 20 39 1.6 3.2 0.00 0.00 0.00 40 1018.4
20260503214254 20 249 3.2 9.7 0.00 0.00 0.00 39 1018.5
20260503213752 20 235 6.4 12.9 0.00 0.00 0.00 36 1018.3
20260503213249 20 311 6.4 9.7 0.00 0.00 0.00 37 1018.4
20260503212746 20 33 4.8 11.3 0.00 0.00 0.00 39 1018.5
20260503212244 20 332 4.8 8.0 0.00 0.00 0.00 42 1018.3
20260503211741 20 267 6.4 9.7 0.00 0.00 0.00 37 1018.7
20260503211237 20 43 3.2 11.3 0.00 0.00 0.00 38 1018.8
20260503210732 20 259 6.4 9.7 0.00 0.00 0.00 38 1018.8
20260503210230 20 321 4.8 8.0 0.00 0.00 0.00 38 1018.7
20260503205726 20 275 6.4 9.7 0.00 0.00 0.00 38 1018.9
20260503205222 20 327 3.2 8.0 0.00 0.00 0.00 40 1018.8